sat.trackr.live / text

‹ back to catalog

TEVEL2-7

NORAD 63238 · 2025-052AE

PAYLOAD ACTIVE UNKNOWN

§ Identity

Operator
Country
ISRA
Launch date
2025-03-15
Launch site
AFWTR
Launch vehicle
Mass (kg)
RCS (m²)

Purposes: comms

External: N2YO · Heavens-Above · Gunter

§ Orbital elements

Epoch: 2026-09-18T22:27:15.687072Z

Period
93.86 min
Inclination
97.3793°
Eccentricity
0.0006577
Mean motion
15.34170084 rev/d
Perigee alt
458.9 km
Apogee alt
467.9 km
Semi-major
6,841.5 km
B*
3.5948e-4
RAAN
157.0587°
Arg perigee
150.2751°
Mean anomaly
209.8867°
Rev number
8,438

§ Raw data

TEVEL2-71 63238U 25052AE  26261.93559823  .00011822  00000+0  35948-3 0  99922 63238  97.3793 157.0587 0006577 150.2751 209.8867 15.34170084 84387

JSON: /api/v1/satellites/63238 · /tle

For live sub-satellite position, see the globe view (requires WebGL).

§ Visibility from observer

Set your observer location to see the next 7 days of passes ≥ 10°. The values pass through the URL so the page stays shareable.

No JS? Fill the form by hand. The geolocation button needs JavaScript.

§ Radio — SatNOGS DB

ModeDescriptionDownlinkUplink
BPSK Mode U - BPSK9k6 G3RUH - Beacon 436.400 MHz
FM Mode V/U - FM Transponder 436.400 MHz 145.970 MHz

2 transmitters · refreshed weekly from db.satnogs.org